Regional Weather Roundup
Issued by NWS

Home | Current Version | Previous Version | Text Only | Print | Product List | Glossary On
Versions: 1 2 3 4 5 6 7 8 9 10 11 12 13 14 15 16 17 18 19 20 21 22 23 24 25 26 27 28
000
ASUS44 KLIX 101113
RWRLA
LOUISIANA WEATHER ROUNDUP
NATIONAL WEATHER SERVICE NEW ORLEANS LA
500 AM CST SAT DEC 10 2016

NOTE: "FAIR" INDICATES FEW OR NO CLOUDS BELOW 12,000 FEET WITH NO
      SIGNIFICANT WEATHER AND/OR OBSTRUCTIONS TO VISIBILITY.
      SKY/WX - SKY CONDITION AND SIGNIFICANT WEATHER.
      TMP - AIR TEMPERATURE.    DP   - DEWPOINT TEMPERATURE.
      RH  - RELATIVE HUMIDITY.  PRES - PRESSURE.
      HX  - HEAT INDEX.         WCI  - WIND CHILL INDEX.

*  THESE STATIONS ARE NOT NWS OR FAA STATIONS AND ARE NOT UNDER
   NWS QUALITY CONTROL.

LAZ040-048-061>063-065-066-069-101200-
SOUTHEAST LOUISIANA

CITY           SKY/WX    TMP DP  RH WIND       PRES   REMARKS
N.O. AUDUBON   NOT AVBL
N.O. INTL ARPT CLEAR     41  27  57 E9        30.52S
N.O. LAKEFRONT CLEAR     40  27  59 NE20      30.52S WCI  30
N.O. DOWNTOWN*   N/A     39  25  57 VRB3      30.53S
RESERVE*       FAIR      38  28  68 NE6       30.52S WCI  33
SLIDELL        CLEAR     29  26  89 CALM      30.53R
BATON ROUGE    CLEAR     31  25  78 NE6       30.52F WCI  25
BOOTHVILLE     CLEAR     44  37  76 NE10      30.48F
BELLE CHASSE   CLEAR     37  28  70 NE7       30.51S WCI  32
BOGALUSA*      FAIR      30  25  81 N3        30.56R
GALLIANO*      SUNNY     41  30  65 NE7       30.49F
NEW ROADS*     FAIR      32  25  74 NE6       30.53S WCI  26
GONZALES*      FAIR      32  26  79 CALM      30.52F
HAMMOND*       CLEAR     30  27  86 CALM      30.54R
HOUMA*         CLEAR     36  28  73 NE7       30.50F WCI  31
PORT FOURCHON* SUNNY     46  36  66 NE15      30.48S

$$

LAZ041-044-053-054-101200-
SOUTHWEST LOUISIANA

CITY           SKY/WX    TMP DP  RH WIND       PRES   REMARKS
LAKE CHARLES   CLEAR     34  30  85 NE9       30.50S WCI  27
LAFAYETTE      CLEAR     33  28  81 NE6       30.51F WCI  28
PATTERSON      CLEAR    N/A N/A N/A NE7       30.51F
SALT POINT     NOT AVBL
NEW IBERIA     CLEAR     35  25  66 NE9       30.51F WCI  28
CHENAULT AIRPK NOT AVBL

$$

LAZ027-028-101200-
CENTRAL LOUISIANA

CITY           SKY/WX    TMP DP  RH WIND       PRES   REMARKS
FORT POLK      CLEAR     30  26  84 VRB3      30.51S
ALEXANDRIA INT CLEAR     30  26  85 CALM      30.52S
ALEXANDRIA     CLEAR     28  27  96 CALM      30.53S

$$

LAZ001-002-101200-
NORTHWEST LOUISIANA

CITY           SKY/WX    TMP DP  RH WIND       PRES   REMARKS
SHREVEPORT     PTCLDY    33  26  75 NE3       30.53R
BARKSDALE AFB  PTCLDY    33  24  70 NE2       30.54R
DTN SHREVEPORT CLEAR     34  24  67 NE3       30.55R

$$

LAZ014-016-101200-
NORTHEAST LOUISIANA

CITY           SKY/WX    TMP DP  RH WIND       PRES   REMARKS
MONROE         CLEAR     26  24  92 CALM      30.57R
TALLULAH       CLEAR     27  24  89 E5        30.56F WCI  22

$$





USA.gov is the U.S. government's official web portal to all federal, state and local government web resources and services.